Location: Newark
(40.9833°N, 0.0333°W)
Time: 01:12:25
(UTC+00:00)

Altair - Pass Details

Date: 29 October 2020
Orbit: 1502 x 1682 km, 47.2° (Epoch: 02 December)

Event Time Altitude Azimuth Distance (km) Brightness Sun altitude
Rises 07:31:03 0° 275° (W) 4,679 9.5 10.1°
Reaches altitude 10° 07:34:08 10° 279° (W) 3,716 9.0 10.7°
Maximum altitude 07:43:26 60° 359° (N) 1,772 7.9 12.2°
Drops below altitude 10° 07:53:08 10° 78° (ENE) 3,858 10.4 13.7°
Sets 07:56:24 0° 83° (E) 4,867 11.0 14.3°
